Weather History for Knoxville, TN

Change the Weather History Date:

Thursday, August 7, 2014

  Actual Average Record
Temperature  
Mean Temperature 78 °F 78 °F  
Max Temperature 88 °F 88 °F 101 °F (1935)
Min Temperature 68 °F 69 °F 54 °F (2004)
Degree Days  
Heating Degree Days 0 0  
Month to date heating degree days 0 0  
Since 1 June heating degree days 0 4  
Since 1 July heating degree days 0 0  
Cooling Degree Days 13 13  
Month to date cooling degree days 70 91  
Year to date cooling degree days 922 975  
Since 1 June cooling degree days 717 813  
Growing Degree Days 19 (Base 50)    
Moisture  
Dew Point 67 °F    
Average Humidity 73    
Maximum Humidity 100    
Minimum Humidity 46    
Precipitation  
Precipitation T in 0.12 in 1.17 in (2003)
Month to date precipitation 0.24 0.87  
Year to date precipitation 25.49 31.20  
Snow  
Snow 0.00 in 0.00 in - ()
Month to date snowfall 0.0 0.0  
Since 1 June snowfall 0.0 0.0  
Since 1 July snowfall 0.0 0.0  
Snow Depth 0.00 in    
Sea Level Pressure  
Sea Level Pressure 29.98 in    
Wind  
Wind Speed 4 mph (NNE)    
Max Wind Speed 14 mph    
Max Gust Speed 16 mph    
Visibility 7 miles    
Events      
T = Trace of Precipitation, MM = Missing Value Source: NWS Daily Summary

Daily Weather History Graph

Daily Weather History Graph

Search for Another Location

Airport:

Trip Planner

Search our weather history database for the weather conditions in past years. The results will help you decide how hot, cold, wet, or windy it might be!

Date:

Astronomy

Aug. 07, 2014 Rise Set
Actual Time 6:48 AM EDT 8:34 PM EDT
Civil Twilight 6:20 AM EDT 9:02 PM EDT
Nautical Twilight 5:47 AM EDT 9:35 PM EDT
Astronomical Twilight 5:11 AM EDT 10:10 PM EDT
Moon 5:48 PM EDT (8/7) 3:19 AM EDT (8/7)
Length of Visible Light 14h 41m
Length of Day
13h 46m
Waxing Gibbous, 86% of the Moon is Illuminated
Aug 7
Waxing Gibbous
Aug 10
Full
Aug 17
Last Quarter
Aug 25
New
Sep 2
First Quarter

Hourly Weather History & Observations

Time (EDT) Temp. Heat Index Dew Point Humidity Pressure Visibility Wind Dir Wind Speed Gust Speed Precip Events Conditions
12:53 AM 73.9 °F - 71.1 °F 91% 29.99 in 6.0 mi North 3.5 mph - N/A   Overcast
1:53 AM 72.0 °F - 71.1 °F 97% 29.97 in 4.0 mi Calm Calm - N/A   Overcast
2:53 AM 72.0 °F - 71.1 °F 97% 29.96 in 4.0 mi Calm Calm - N/A   Mostly Cloudy
3:42 AM 72.0 °F - 70.0 °F 93% 29.99 in 5.0 mi NNE 3.5 mph - N/A   Mostly Cloudy
3:53 AM 72.0 °F - 70.0 °F 93% 29.96 in 5.0 mi Calm Calm - N/A   Overcast
3:57 AM 72.0 °F - 70.0 °F 93% 29.99 in 2.5 mi North 3.5 mph - N/A   Overcast
4:53 AM 71.1 °F - 69.1 °F 93% 29.96 in 6.0 mi North 4.6 mph - N/A   Overcast
5:53 AM 69.1 °F - 68.0 °F 96% 29.97 in 5.0 mi NE 3.5 mph - N/A   Scattered Clouds
6:53 AM 68.0 °F - 68.0 °F 100% 29.98 in 4.0 mi Calm Calm - N/A   Mostly Cloudy
7:53 AM 71.1 °F - 69.1 °F 93% 30.01 in 5.0 mi North 4.6 mph - N/A   Overcast
8:53 AM 73.0 °F - 69.1 °F 87% 30.02 in 6.0 mi NE 4.6 mph - N/A   Overcast
9:53 AM 75.0 °F - 69.1 °F 82% 30.02 in 8.0 mi North 5.8 mph - N/A   Overcast
10:53 AM 77.0 °F - 70.0 °F 79% 30.03 in 8.0 mi Variable 3.5 mph - N/A   Mostly Cloudy
11:53 AM 81.0 °F 84.1 °F 69.1 °F 67% 30.03 in 9.0 mi Calm Calm - N/A   Mostly Cloudy
12:53 PM 84.0 °F 87.8 °F 69.1 °F 61% 30.01 in 9.0 mi North 5.8 mph - N/A   Mostly Cloudy
1:53 PM 50.0 °F - 39.2 °F 66% 30.00 in - North - - N/A   Unknown
2:53 PM 87.1 °F 89.2 °F 66.0 °F 49% 29.99 in 10.0 mi NNE 5.8 mph - N/A   Mostly Cloudy
3:53 PM 87.1 °F 88.9 °F 64.9 °F 48% 29.97 in 10.0 mi East 9.2 mph - N/A   Mostly Cloudy
4:53 PM 86.0 °F 87.6 °F 64.9 °F 49% 29.96 in 10.0 mi East 9.2 mph - N/A   Mostly Cloudy
5:53 PM 82.9 °F 85.4 °F 66.9 °F 58% 29.95 in 10.0 mi NE 10.4 mph - N/A   Mostly Cloudy
6:53 PM 82.9 °F 85.0 °F 66.0 °F 56% 29.95 in 10.0 mi NNE 9.2 mph - N/A   Mostly Cloudy
7:53 PM 80.1 °F 82.3 °F 66.9 °F 64% 29.96 in 10.0 mi NE 4.6 mph - N/A   Mostly Cloudy
8:53 PM 77.0 °F - 68.0 °F 74% 29.96 in 10.0 mi NE 3.5 mph - N/A   Overcast
9:53 PM 73.0 °F - 68.0 °F 84% 29.95 in 10.0 mi NE 6.9 mph - N/A   Overcast
10:53 PM 75.9 °F - 66.9 °F 74% 29.97 in 10.0 mi Calm Calm - N/A   Overcast
11:53 PM 72.0 °F - 66.9 °F 84% 29.97 in 8.0 mi ENE 3.5 mph - N/A   Overcast